Погода в Нижнедевицке

Россия / Воронежская область     51°41′06″N   38°19′30″E
темп.,
°C
ветер,
м/с
пор.,
м/с
влажн.,
%
обл.,
%
осадки,
мм/ч
давл.,
гПа
погр.,
м
29 июля, чт
чт2900:00+19в347793 0.5 101270
03:00+17зюз22804 0.6 101221
06:00+18з23835 0.0 101180
09:00+23зсз346059 0.0 1011483
12:00+28з45468 0.0 10101580
15:00+29зсз5640100 0.0 10092428
18:00+28зсз25481 0.0 1008750
21:00+22в11628 0.0 100811
30 июля, пт
пт3000:00+22ю346089 0.0 100980
03:00+21ююз47640 0.0 1008112
06:00+20ююз3778100 0.0 1007166
09:00+26зюз565537 0.0 1008623
12:00+29зюз454817 0.0 10071374
15:00+29з5647100 0.0 10072046
18:00+28сз664961 0.0 10061304
21:00+23з1367100 0.0 100882
31 июля, сб
сб3100:00+23зсз3467100 0.0 1009114
03:00+20ссз36679 0.0 1009147
06:00+18сз25740 0.0 1010112
09:00+24сз33512 0.0 1011541
12:00+28зсз44360 0.0 10112011
15:00+29зсз45333 0.0 10102512
18:00+29зсз453863 0.0 10102094
21:00+23з12521 0.0 101111
1 августа, вс
вс100:00+21зсз11598 0.0 101211
03:00+20юз22635 0.0 101315
06:00+20ююз22635 0.0 101329
09:00+27ююз46431 0.0 1012557
12:00+31ююз55310 0.0 10122435
15:00+32ююз55270 0.0 10112754
18:00+31ю553245 0.0 1010909
21:00+25ююз3447100 0.0 101056
2 августа, пн
пн200:00+23ююз225286 0.0 101012
03:00+21ю33590 0.0 101038
06:00+21ю35630 0.0 101085
09:00+29ююз46391 0.0 1009524
12:00+33ююз5630100 0.0 10082429
15:00+33юз6729100 0.0 10072933
18:00+31юз8113746 0.2 10061231
21:00+23ю34682 1.5 100642